小惑星A/2018 V3

A/2018 V3

English version
Home page
Updated on February 9, 2023

---------------------------------------------------------------------

・ プロフィール

発見日 2018年11月12日
発見光度 21.9等
発見者 Pan-STARRS 2 (Haleakala)

・ 写真集

・ 軌道要素

Epoch 2022 Aug. 9.0 TT = JDT 2459800.5                                          
T 2019 Sept. 8.96888 TT                                 Rudenko                 
q   1.3414110            (2000.0)            P               Q                  
z  +0.0079123      Peri.    3.59261     +0.57650438     -0.79162187             
 +/-0.0000010      Node   308.68042     -0.75598431     -0.61076699             
e   0.9893864      Incl.  164.97086     -0.31004906     +0.01727722             
H   15.7                                                                        
>From 342 observations 2018 Sept. 6-2020 June 16, mean residual 0".3.            

・ 星図

・ 光度変化

        H = 15.5  G = 0.15

---------------------------------------------------------------------

軌道要素はM.P.E.C. 2022-V125に掲載されたものです。
星図はステラナビゲータ Ver.10 (アストロアーツ) で作成したものです。
光度グラフはComet for Windowsで作成したものです。

---------------------------------------------------------------------

Copyright(C) Seiichi Yoshida (comet@aerith.net). All rights reserved.